User: anonymous   Login
Location: Unspecified
(0.0000°N, 0.0000°E)
Time: 13:08:47
(UTC+02:00)
Language:

H-2A R/B - Orbit

View from above orbital plane
View from above orbital plane
View from above satellite
View from above satellite

Ground track
Ground track

The orbit data is extracted from the following two-line orbital elements,

1 26899U 01038B   18144.78971071 +.00000736 +00000-0 +20993-3 0  9996
2 26899 028.0302 286.4373 7114007 054.5108 352.6582 02.48932048144973
Epoch (UTC): 24 May 2018 18:57:11
Eccentricity: 0.7114007
inclination: 28.0302°
perigee height: 259 km
apogee height: 32979 km
right ascension of ascending node: 286.4373°
argument of perigee: 54.5108°
revolutions per day: 2.48932048
mean anomaly at epoch: 352.6582°
orbit number at epoch: 14497

The dashed part of the orbit path shows where the satellite is in the earth's shadow,  

DLR